When you browse on this site, cookies collect data to enhance your experience and personalize the content and advertising you see.
Visit our Privacy Policy to learn more. By continuing to use the site, you agree to this use of cookies and data.
  • In Österreich
  • Länderverzeichnis
  • Für 7 Tage
  • Wassertemperatur
  • Wetterkarte
  • News
  • Widgets
  • user-avatar
    Anmelden

    Stündliche Wetter Sliwen

    Heute, 16 Oktober, Mittwoch

    Zeit Temperatur Niederschläge Wind Luftdruck Luftfeuchtigkeit
    00:00 +14°C° 0 mm 1 m/S 734 mmHg 82%
    01:00 +13°C° 0 mm 1 m/S 734 mmHg 80%
    02:00 +12°C° 0 mm 0 m/S 734 mmHg 79%
    03:00 +12°C° 0 mm 0 m/S 734 mmHg 78%
    04:00 +12°C° 0 mm 0 m/S 733 mmHg 76%
    05:00 +12°C° 0 mm 0 m/S 733 mmHg 74%
    06:00 +12°C° 0 mm 0 m/S 734 mmHg 72%
    07:00 +13°C° 0 mm 0 m/S 734 mmHg 69%
    08:00 +15°C° 0 mm 1 m/S 734 mmHg 66%
    09:00 +18°C° 0 mm 1 m/S 734 mmHg 60%
    10:00 +20°C° 0 mm 1 m/S 734 mmHg 54%
    11:00 +22°C° 0 mm 1 m/S 734 mmHg 48%
    12:00 +23°C° 0 mm 1 m/S 734 mmHg 45%
    13:00 +24°C° 0 mm 1 m/S 734 mmHg 41%
    14:00 +25°C° 0 mm 1 m/S 734 mmHg 37%
    15:00 +23°C° 0 mm 1 m/S 734 mmHg 41%
    16:00 +22°C° 0 mm 1 m/S 733 mmHg 46%
    17:00 +21°C° 0 mm 1 m/S 733 mmHg 50%
    18:00 +19°C° 0 mm 1 m/S 733 mmHg 56%
    19:00 +18°C° 0 mm 1 m/S 733 mmHg 62%
    20:00 +16°C° 0 mm 1 m/S 733 mmHg 68%
    21:00 +15°C° 0 mm 1 m/S 733 mmHg 70%
    22:00 +15°C° 0 mm 1 m/S 733 mmHg 73%
    23:00 +15°C° 0 mm 1 m/S 734 mmHg 75%

    Morgen, 17 Oktober, Donnerstag

    Zeit Temperatur Niederschläge Wind Luftdruck Luftfeuchtigkeit
    00:00 +15°C° 0 mm 1 m/S 734 mmHg 75%
    01:00 +14°C° 0 mm 1 m/S 734 mmHg 74%
    02:00 +14°C° 0 mm 1 m/S 734 mmHg 73%
    03:00 +13°C° 0 mm 0 m/S 734 mmHg 73%
    04:00 +13°C° 0 mm 0 m/S 733 mmHg 72%
    05:00 +13°C° 0 mm 0 m/S 733 mmHg 71%
    06:00 +14°C° 0 mm 0 m/S 734 mmHg 68%
    07:00 +14°C° 0 mm 0 m/S 734 mmHg 65%
    08:00 +15°C° 0 mm 0 m/S 734 mmHg 62%
    09:00 +17°C° 0 mm 0 m/S 734 mmHg 55%
    10:00 +19°C° 0 mm 0 m/S 734 mmHg 48%
    11:00 +22°C° 0 mm 0 m/S 735 mmHg 40%
    12:00 +24°C° 0 mm 1 m/S 735 mmHg 37%
    13:00 +25°C° 0 mm 1 m/S 734 mmHg 35%
    14:00 +26°C° 0 mm 1 m/S 734 mmHg 32%
    15:00 +25°C° 0 mm 1 m/S 734 mmHg 36%
    16:00 +24°C° 0 mm 1 m/S 734 mmHg 40%
    17:00 +22°C° 0 mm 1 m/S 734 mmHg 44%
    18:00 +21°C° 0 mm 1 m/S 734 mmHg 49%
    19:00 +19°C° 0 mm 1 m/S 734 mmHg 54%
    20:00 +18°C° 0 mm 1 m/S 734 mmHg 60%
    21:00 +18°C° 0 mm 1 m/S 734 mmHg 62%
    22:00 +16°C° 0 mm 1 m/S 734 mmHg 64%
    23:00 +15°C° 0 mm 0 m/S 734 mmHg 65%

    übermorgen, 18 Oktober, Freitag

    Zeit Temperatur Niederschläge Wind Luftdruck Luftfeuchtigkeit
    00:00 +15°C° 0 mm 0 m/S 734 mmHg 66%
    01:00 +14°C° 0 mm 0 m/S 734 mmHg 67%
    02:00 +14°C° 0 mm 0 m/S 734 mmHg 68%
    03:00 +14°C° 0 mm 0 m/S 734 mmHg 68%
    04:00 +14°C° 0 mm 0 m/S 734 mmHg 67%
    05:00 +14°C° 0 mm 0 m/S 734 mmHg 67%
    06:00 +14°C° 0 mm 0 m/S 734 mmHg 64%
    07:00 +15°C° 0 mm 0 m/S 734 mmHg 61%
    08:00 +16°C° 0 mm 0 m/S 735 mmHg 58%
    09:00 +18°C° 0 mm 0 m/S 735 mmHg 52%
    10:00 +20°C° 0 mm 0 m/S 735 mmHg 46%
    11:00 +24°C° 0 mm 1 m/S 735 mmHg 40%
    12:00 +25°C° 0 mm 1 m/S 735 mmHg 38%
    13:00 +25°C° 0 mm 1 m/S 734 mmHg 36%
    14:00 +26°C° 0 mm 1 m/S 734 mmHg 34%
    15:00 +25°C° 0 mm 1 m/S 734 mmHg 37%
    16:00 +24°C° 0 mm 1 m/S 734 mmHg 41%
    17:00 +23°C° 0 mm 1 m/S 733 mmHg 44%
    18:00 +21°C° 0 mm 1 m/S 733 mmHg 49%
    19:00 +20°C° 0 mm 1 m/S 733 mmHg 54%
    20:00 +18°C° 0 mm 1 m/S 733 mmHg 59%
    21:00 +18°C° 0 mm 1 m/S 734 mmHg 61%
    22:00 +16°C° 0 mm 1 m/S 734 mmHg 63%
    23:00 +16°C° 0 mm 1 m/S 734 mmHg 65%

    19 Oktober, Samstag

    Zeit Temperatur Niederschläge Wind Luftdruck Luftfeuchtigkeit
    00:00 +16°C° 0 mm 1 m/S 734 mmHg 66%
    01:00 +16°C° 0 mm 1 m/S 734 mmHg 66%
    02:00 +14°C° 0 mm 0 m/S 734 mmHg 66%
    03:00 +14°C° 0 mm 0 m/S 734 mmHg 67%
    04:00 +14°C° 0 mm 0 m/S 734 mmHg 67%
    05:00 +14°C° 0 mm 0 m/S 734 mmHg 67%
    06:00 +15°C° 0 mm 0 m/S 734 mmHg 64%
    07:00 +15°C° 0 mm 0 m/S 734 mmHg 61%
    08:00 +16°C° 0 mm 0 m/S 734 mmHg 58%
    09:00 +18°C° 0 mm 0 m/S 735 mmHg 52%
    10:00 +22°C° 0 mm 1 m/S 735 mmHg 46%
    11:00 +24°C° 0 mm 1 m/S 735 mmHg 40%
    12:00 +25°C° 0 mm 1 m/S 735 mmHg 37%
    13:00 +26°C° 0 mm 1 m/S 735 mmHg 35%
    14:00 +26°C° 0 mm 1 m/S 734 mmHg 33%
    15:00 +25°C° 0 mm 1 m/S 734 mmHg 37%
    16:00 +24°C° 0 mm 1 m/S 734 mmHg 40%
    17:00 +23°C° 0 mm 1 m/S 734 mmHg 44%
    18:00 +21°C° 0 mm 1 m/S 734 mmHg 48%
    19:00 +20°C° 0 mm 1 m/S 734 mmHg 53%
    20:00 +19°C° 0 mm 1 m/S 734 mmHg 57%
    21:00 +18°C° 0 mm 1 m/S 735 mmHg 59%
    22:00 +18°C° 0 mm 1 m/S 735 mmHg 61%
    23:00 +16°C° 0 mm 1 m/S 735 mmHg 63%

    20 Oktober, Sonntag

    Zeit Temperatur Niederschläge Wind Luftdruck Luftfeuchtigkeit
    00:00 +16°C° 0 mm 1 m/S 735 mmHg 64%
    01:00 +16°C° 0 mm 1 m/S 735 mmHg 64%
    02:00 +14°C° 0 mm 0 m/S 735 mmHg 65%
    03:00 +14°C° 0 mm 0 m/S 735 mmHg 64%
    04:00 +14°C° 0 mm 0 m/S 735 mmHg 64%
    05:00 +14°C° 0 mm 0 m/S 735 mmHg 64%
    06:00 +15°C° 0 mm 0 m/S 735 mmHg 62%
    07:00 +15°C° 0 mm 0 m/S 735 mmHg 59%
    08:00 +16°C° 0 mm 0 m/S 736 mmHg 57%
    09:00 +18°C° 0 mm 0 m/S 736 mmHg 51%
    10:00 +22°C° 0 mm 1 m/S 736 mmHg 45%
    11:00 +24°C° 0 mm 1 m/S 736 mmHg 39%
    12:00 +25°C° 0 mm 1 m/S 736 mmHg 37%
    13:00 +25°C° 0 mm 1 m/S 736 mmHg 35%
    14:00 +26°C° 0 mm 1 m/S 736 mmHg 33%
    15:00 +25°C° 0 mm 1 m/S 735 mmHg 37%
    16:00 +24°C° 0 mm 1 m/S 735 mmHg 41%
    17:00 +22°C° 0 mm 1 m/S 735 mmHg 45%
    18:00 +21°C° 0 mm 1 m/S 735 mmHg 50%
    19:00 +20°C° 0 mm 1 m/S 735 mmHg 55%
    20:00 +18°C° 0 mm 1 m/S 736 mmHg 60%
    21:00 +18°C° 0 mm 1 m/S 736 mmHg 61%
    22:00 +16°C° 0 mm 1 m/S 736 mmHg 62%
    23:00 +16°C° 0 mm 1 m/S 736 mmHg 64%

    21 Oktober, Montag

    Zeit Temperatur Niederschläge Wind Luftdruck Luftfeuchtigkeit
    00:00 +15°C° 0 mm 1 m/S 736 mmHg 64%
    01:00 +15°C° 0 mm 1 m/S 736 mmHg 65%
    02:00 +15°C° 0 mm 1 m/S 736 mmHg 66%
    03:00 +14°C° 0 mm 0 m/S 736 mmHg 67%
    04:00 +13°C° 0 mm 0 m/S 736 mmHg 67%
    05:00 +13°C° 0 mm 0 m/S 736 mmHg 68%
    06:00 +14°C° 0 mm 0 m/S 736 mmHg 65%
    07:00 +15°C° 0 mm 0 m/S 736 mmHg 62%
    08:00 +16°C° 0 mm 0 m/S 737 mmHg 59%
    09:00 +18°C° 0 mm 0 m/S 737 mmHg 52%
    10:00 +22°C° 0 mm 1 m/S 737 mmHg 45%
    11:00 +24°C° 0 mm 1 m/S 737 mmHg 39%
    12:00 +24°C° 0 mm 1 m/S 737 mmHg 36%
    13:00 +25°C° 0 mm 1 m/S 737 mmHg 34%
    14:00 +26°C° 0 mm 2 m/S 737 mmHg 32%
    15:00 +24°C° 0 mm 2 m/S 737 mmHg 36%
    16:00 +23°C° 0 mm 2 m/S 736 mmHg 40%
    17:00 +21°C° 0 mm 2 m/S 736 mmHg 44%
    18:00 +20°C° 0 mm 1 m/S 736 mmHg 50%
    19:00 +19°C° 0 mm 1 m/S 736 mmHg 56%
    20:00 +16°C° 0 mm 1 m/S 736 mmHg 62%
    21:00 +16°C° 0 mm 1 m/S 737 mmHg 63%
    22:00 +15°C° 0 mm 1 m/S 737 mmHg 64%
    23:00 +14°C° 0 mm 0 m/S 737 mmHg 65%
    Mehr zeigen